Location: *
(43.9456°N, 2.5250°E)
Time: 06:44:50
(UTC+00:00)

Daily predictions for brighter satellites

Satellite Brightness Start Highest point End
(mag) Time Altitude Azimuth Time Altitude Azimuth Time Altitude Azimuth
Cosmos 1626 3.7 18:46:03 10° NNW 18:49:34 41° W 18:53:03 10° SSW
Cosmos 1603 3.7 18:44:23 10° SSW 18:50:00 77° ESE 18:55:37 10° NNE
Cosmos 1758 Rocket 4.1 18:46:10 10° N 18:50:15 38° ENE 18:54:16 10° SE
STARLINK-29 4.5 18:53:13 10° S 18:55:31 19° SE 18:57:52 10° E
SJ-6B 3.8 18:52:32 10° SE 18:56:08 30° ENE 18:59:47 10° N
STARLINK-60 3.4 18:54:14 10° SSW 18:57:23 44° SE 19:00:31 10° ENE
ATLAS 5 CENTAUR R/B 2.6 18:54:42 10° SSE 18:57:54 22° ESE 19:01:20 10° ENE
Cosmos 1606 Rocket 4.2 18:53:58 10° SSE 18:57:58 34° E 19:02:01 10° NNE
Cosmos 2074 Rocket 4.2 18:53:38 10° N 18:59:48 54° ENE 19:05:56 10° SSE
Meteor 1-16 Rocket 4.3 18:57:11 10° SSE 19:02:23 51° E 19:07:45 10° NNE
Cosmos 1818 3.5 18:57:17 10° SSW 19:02:41 74° ESE 19:08:08 10° NE
ADEOS Rocket 3.8 18:56:28 10° N 19:02:41 58° WNW 19:08:19 10° SSW
SL-8 R/B 4.2 19:01:05 10° WNW 19:05:45 55° SSW 19:10:25 10° SE
Abrixas rocket 3.3 19:05:49 10° WNW 19:08:32 32° N 19:11:16 10° ENE
ISS -1.4 19:06:41 10° W 19:09:14 20° SW 19:11:45 10° S
Cosmos 1943 Rocket 3.2 19:06:49 10° NW 19:12:09 48° WSW 19:17:29 10° S
NOSS 3-4 (A) 4.1 19:06:44 10° NNW 19:13:33 55° NE 19:20:34 12° ESE
NOSS 3-4 (C) 4.1 19:06:50 10° NNW 19:13:40 54° NE 19:20:38 12° ESE
Meteor 1-21 Rocket 4.3 19:08:14 10° NNW 19:13:48 83° W 19:19:20 10° S
FALCON 9 DEB 4.1 19:14:19 10° SSW 19:17:22 29° SE 19:20:16 11° ENE
Cosmos 1300 4.5 19:17:23 13° E 19:17:57 14° E 19:19:53 10° NE
SL-4 R/B 1.8 19:14:44 10° WSW 19:18:08 69° NNW 19:21:33 10° NE
MOS 1 4.3 19:16:01 10° SSE 19:21:38 75° ENE 19:27:19 10° NNW
Cosmos 2369 Rocket 2.9 19:16:15 10° NNW 19:21:47 55° WSW 19:27:16 10° S
Cosmos 1340 Rocket 3.6 19:18:45 10° SSE 19:22:19 30° E 19:25:53 10° NNE
MOS 1 Rocket 4.4 19:19:09 10° NNE 19:23:56 31° E 19:28:43 10° SSE
H-2A R/B 4.4 19:17:33 10° W 19:24:16 15° SW 19:27:32 10° SSW
H-2A R/B 2.1 19:20:10 10° SSE 19:25:23 89° WSW 19:30:30 10° NNW
STARLINK-67 3.9 19:23:34 10° NW 19:25:50 27° NNE 19:27:10 17° ENE
CZ-2C R/B 4.1 19:21:55 10° NNE 19:26:24 43° E 19:30:47 10° S
Cosmos 1703 3.3 19:22:33 10° N 19:26:28 58° E 19:30:23 10° SSE
Cosmos 1328 3.9 19:23:10 10° N 19:27:07 57° E 19:31:03 10° SSE
CZ-2C R/B 2.8 19:23:16 10° SSE 19:28:10 88° E 19:32:57 10° NNW
Cosmos 1437 3.3 19:29:29 10° NNW 19:32:27 54° W 19:35:23 10° S
STARLINK-52 3.4 19:32:54 10° SSW 19:35:54 38° SE 19:37:28 22° E
Cosmos 1908 3.1 19:32:07 10° S 19:35:57 71° E 19:39:49 10° NNE
SL-08 RB Rocket 3.7 19:31:40 10° SSE 19:36:11 71° ENE 19:40:47 10° N
MONITOR-E 4.4 19:36:16 10° S 19:38:50 55° W 19:41:26 10° NNW
Resurs 1-3 3.9 19:37:16 18° SE 19:40:17 46° ENE 19:44:30 10° N
USA 234 3.8 19:38:02 10° ENE 19:43:47 32° SE 19:49:31 10° S
SeaSat 1 4.4 19:40:39 10° N 19:45:01 32° NW 19:49:22 10° WSW
ATLAS 2AS CENTAUR R/B 2.8 19:38:23 10° NW 19:46:01 84° NE 19:51:22 19° SE
Cosmos 1943 4.2 19:40:32 10° SW 19:46:01 51° WNW 19:51:35 10° NNE
STARLINK-1228 4.0 19:43:27 10° NW 19:46:08 31° NNE 19:47:06 24° ENE
Ariane Rocket 3.9 19:41:28 10° S 19:46:22 49° W 19:51:17 10° NNW
Cosmos 1953 4.4 19:44:05 10° SW 19:47:35 30° WNW 19:51:08 10° NNW
Cosmos 1140 Rocket 3.4 19:45:33 10° S 19:50:39 61° ESE 19:55:46 10° NNE
Cosmos 1726 3.9 19:47:42 10° SW 19:51:07 34° WNW 19:54:35 10° N
Cosmos 1656 Rocket 4.1 19:49:56 10° NNW 19:55:30 61° WSW 20:00:47 11° S
Cosmos 2341 Rocket 4.2 19:49:39 10° N 19:55:53 52° ENE 19:59:56 22° SE
Cosmos 1190 Rocket 3.9 19:51:46 10° SSW 19:57:04 81° ESE 20:02:24 10° NNE
Cosmos 2058 Rocket 3.0 19:53:19 10° S 19:57:49 78° E 20:02:21 10° N
Spot 2 Rocket 4.5 19:56:54 25° E 19:58:27 30° ENE 20:02:52 10° N
Meteor 1-11 4.2 19:53:55 10° N 19:59:43 88° WSW 20:05:00 12° S
MetOp-A 4.1 19:55:38 14° SSE 20:00:15 86° ENE 20:05:39 10° NNW
DMSP B5D2-2 4.0 19:56:33 10° NNE 20:01:47 72° ESE 20:07:00 10° S
COSMOS 2455 3.0 19:56:13 10° NNW 20:02:11 58° NE 20:05:12 29° ESE
CZ-2C R/B 2.5 19:57:18 10° NNE 20:02:26 62° E 20:07:35 10° S
Cosmos 614 Rocket 4.4 19:57:53 10° SSW 20:03:04 64° WNW 20:08:16 10° NNE
Cosmos 1726 Rocket 4.3 20:01:29 10° SSW 20:05:48 55° W 20:10:12 10° N
ARGOS 4.1 20:01:33 10° S 20:06:43 47° W 20:11:55 10° NNW
USA 186 4.2 20:06:29 10° SSW 20:09:08 22° W 20:11:45 10° NW
Cosmos 2218 Rocket 4.5 20:04:20 10° N 20:10:11 41° ENE 20:12:18 31° ESE
Resurs 01 Rocket 1.5 20:08:30 35° SE 20:10:13 68° ENE 20:14:37 10° N
ERBS 4.3 20:09:17 10° NNW 20:11:47 19° NNE 20:12:22 18° NE
SL-24 R/B 4.4 20:09:30 10° N 20:13:29 57° WNW 20:17:07 10° SSW
BREEZE-M DEB (TANK) 3.1 20:10:43 10° W 20:14:21 31° NNW 20:15:10 25° NNE
STARLINK-1234 3.4 20:17:03 10° NW 20:19:47 50° N 20:19:47 50° N
STARLINK-1233 3.7 20:17:04 10° NW 20:19:56 41° NNE 20:19:56 41° NNE
STARLINK-1212 3.7 20:17:32 10° NW 20:20:22 41° NNE 20:20:22 41° NNE
Cosmos 921 Rocket 2.8 20:16:23 10° NNW 20:20:35 85° WSW 20:21:45 47° SSE
STARLINK-1105 3.7 20:17:57 10° NW 20:20:48 42° NNE 20:20:48 42° NNE
STARLINK-1209 3.4 20:18:11 10° NW 20:20:51 52° N 20:20:51 52° N
STARLINK-1206 3.8 20:18:27 10° NW 20:21:13 41° NNE 20:21:13 41° NNE
STARLINK-1247 3.8 20:18:54 10° NW 20:21:39 41° NNE 20:21:39 41° NNE
STARLINK-1227 3.7 20:19:18 10° NW 20:22:06 42° NNE 20:22:06 42° NNE
STARLINK-1218 3.8 20:19:48 10° NW 20:22:31 42° N 20:22:31 42° N
STARLINK-1226 3.8 20:20:14 10° NW 20:22:58 42° N 20:22:58 42° N
Cosmos 962 Rocket 4.4 20:17:12 10° N 20:23:23 89° E 20:27:13 24° S
STARLINK-1254 3.8 20:20:39 10° NW 20:23:24 43° N 20:23:24 43° N
STARLINK-1215 3.8 20:21:09 10° NW 20:23:49 42° N 20:23:49 42° N
Cosmos 2181 Rocket 4.0 20:20:34 24° SSE 20:24:21 62° E 20:30:27 10° NNE
STARLINK-1231 3.8 20:21:35 10° NW 20:24:15 42° N 20:24:15 42° N
Cosmos 407 Rocket 4.4 20:19:49 10° SW 20:24:48 50° WNW 20:29:48 10° N
STARLINK-1232 3.8 20:22:30 10° NW 20:25:08 42° N 20:25:08 42° N
Cosmos 676 Rocket 3.9 20:20:33 10° SSW 20:25:50 86° ESE 20:31:08 10° NNE
STARLINK-1217 3.8 20:22:57 10° NW 20:25:33 42° N 20:25:33 42° N
STARLINK-1208 3.8 20:23:20 10° NW 20:26:00 43° N 20:26:00 43° N
BREEZE-M DEB (TANK) 3.0 20:22:00 10° WNW 20:26:31 77° WSW 20:26:31 77° WSW
SL-8 Rocket 4.0 20:20:24 10° N 20:26:42 65° E 20:29:13 37° SSE
STARLINK-1229 3.8 20:23:50 10° NW 20:26:25 42° N 20:26:25 42° N
STARLINK-1271 3.8 20:24:17 10° NW 20:26:51 42° N 20:26:51 42° N
ERS-1 Rocket 4.1 20:27:20 28° ENE 20:27:26 28° ENE 20:31:39 10° N
STARLINK-1270 3.8 20:24:44 10° NW 20:27:17 42° N 20:27:17 42° N
STARLINK-1154 3.9 20:25:11 10° NW 20:27:43 42° N 20:27:43 42° N
SPOT 3 Rocket 4.3 20:24:32 14° S 20:28:53 49° W 20:33:57 10° NNW
Cosmos 1812 Rocket 4.1 20:29:45 41° ENE 20:29:45 41° ENE 20:33:08 10° NNE
STARLINK-1197 3.9 20:26:05 10° NW 20:28:36 42° N 20:28:36 42° N
STARLINK-1189 3.9 20:26:32 10° NW 20:29:01 42° N 20:29:01 42° N
STARLINK-1198 3.9 20:26:59 10° NW 20:29:27 42° N 20:29:27 42° N
STARLINK-1188 3.9 20:27:26 10° NW 20:29:53 42° N 20:29:53 42° N
Cosmos 1461 3.4 20:26:15 10° NW 20:30:45 61° WSW 20:32:00 44° S
Cosmos 1980 Rocket 4.3 20:28:42 10° NNE 20:31:01 12° NE 20:32:34 11° ENE
STARLINK-1235 3.7 20:28:03 10° NW 20:30:32 48° NNW 20:30:32 48° NNW
STARLINK-29 3.6 20:28:17 10° WSW 20:31:20 54° NW 20:31:20 54° NW
STARLINK-1187 3.8 20:28:29 10° NW 20:30:59 45° NNW 20:30:59 45° NNW
STARLINK-1199 4.0 20:29:21 10° NW 20:31:48 42° NNW 20:31:48 42° NNW
STARLINK-1191 4.0 20:29:49 10° NW 20:32:15 42° NNW 20:32:15 42° NNW
Cosmos 1892 4.1 20:29:37 10° N 20:32:00 27° NE 20:32:00 27° NE
STARLINK-1210 4.0 20:30:15 10° NW 20:32:40 42° NNW 20:32:40 42° NNW
SPOT 5 4.3 20:34:13 21° NE 20:34:13 21° NE 20:36:44 10° NNE
STARLINK-1221 4.0 20:30:43 10° NW 20:33:07 41° NNW 20:33:07 41° NNW
STARLINK-1219 4.0 20:31:09 10° NW 20:33:32 41° NNW 20:33:32 41° NNW
STARLINK-1222 4.0 20:31:36 10° NW 20:33:58 41° NNW 20:33:58 41° NNW
STARLINK-1211 4.1 20:32:04 10° NW 20:34:24 41° NNW 20:34:24 41° NNW
STARLINK-1214 4.1 20:32:30 10° NW 20:34:50 41° NNW 20:34:50 41° NNW
STARLINK-1245 4.1 20:33:01 10° NW 20:35:16 39° NNW 20:35:16 39° NNW
STARLINK-1238 4.1 20:33:24 10° NW 20:35:43 40° NNW 20:35:43 40° NNW
STARLINK-1205 4.2 20:34:21 10° NW 20:36:34 39° NNW 20:36:34 39° NNW
STARLINK-1204 4.2 20:34:48 10° NW 20:36:59 38° NNW 20:36:59 38° NNW
Cosmos 220 Rocket 4.2 20:34:10 10° NNW 20:38:14 55° NE 20:38:14 55° NE
Cosmos 2366 rocket 3.9 20:33:27 10° N 20:39:34 64° E 20:41:05 49° SE
STARLINK-1216 4.5 20:37:13 10° NW 20:41:08 39° NNE 20:41:24 39° NNE
Terra 3.4 20:42:27 21° NE 20:42:27 21° NE 20:45:21 10° NNE
ATLAS 5 CENTAUR R/B 2.8 20:38:10 10° WSW 20:42:09 42° NW 20:46:38 10° NNE
Abrixas rocket 3.9 20:41:27 10° WNW 20:43:05 29° WNW 20:43:05 29° WNW
Cosmos 1959 Rocket 4.4 20:39:43 10° N 20:46:03 74° E 20:47:43 50° SSE
STARLINK-1237 4.4 20:42:10 10° NW 20:46:07 41° NNE 20:46:09 41° NNE
Cosmos 1954 Rocket 4.4 20:43:45 10° SSW 20:48:57 63° WNW 20:54:08 10° NNE
STARLINK-1202 4.4 20:47:09 10° NW 20:50:57 43° NNE 20:50:57 43° NNE
Cosmos 2058 3.3 20:47:30 10° N 20:50:48 54° NNE 20:50:48 54° NNE
Cosmos 192 4.3 20:47:12 10° NNW 20:52:10 69° ENE 20:52:10 69° ENE
SPOT 1/Viking Rocket 3.6 20:52:37 59° ENE 20:52:43 59° ENE 20:57:52 10° N
Cosmos 1300 3.8 20:52:16 35° WSW 20:53:12 41° WNW 20:56:51 10° N
RESURS DK-1 4.1 20:50:49 10° N 20:53:17 23° NNE 20:53:17 23° NNE
SL-4 R/B 3.6 20:55:15 10° WNW 20:58:07 24° N 20:58:16 24° N
Cosmos 1076 Rocket 3.8 20:55:24 10° N 20:59:02 63° NNW 20:59:02 63° NNW
STARLINK-1246 4.5 20:57:06 10° NW 21:00:32 45° N 21:00:32 45° N
In-Cosmos 22 Rocket 4.2 20:55:24 10° NNW 21:01:16 83° W 21:02:23 60° S
STARLINK-1203 4.4 20:57:56 10° NW 21:01:26 48° N 21:01:26 48° N
Cosmos 1763 Rocket 3.6 21:05:50 10° NNW 21:10:29 64° NNE 21:10:29 64° NNE
BREEZE M DEB (TANK) 3.5 21:12:23 10° WSW 21:16:08 76° NNW 21:28:33 10° ENE
COSMOS 2406 3.8 21:21:00 46° NE 21:21:00 46° NE 21:25:02 10° NNE
Cosmos 540 Rocket 4.4 21:15:29 10° N 21:19:20 37° NNE 21:19:20 37° NNE
Cosmos 1821 Rocket 4.3 21:14:40 10° N 21:20:35 55° ENE 21:20:35 55° ENE
Meteor 2-10 Rocket 4.2 21:23:20 45° NNE 21:23:20 45° NNE 21:27:07 10° NNE
SL-08 R/B 4.3 21:18:37 10° N 21:24:48 86° W 21:25:05 82° SSW
Iridium 4 Rocket 4.2 21:21:40 10° NNW 21:24:45 40° NW 21:24:45 40° NW
USA 234 3.3 21:20:37 10° NE 21:27:09 77° NW 21:33:41 10° WSW
USA 32 4.4 21:26:58 10° N 21:31:15 61° N 21:31:15 61° N
CZ-4C R/B 3.6 21:34:07 10° NNW 21:40:49 43° NE 21:42:00 41° ENE
Cosmos 2369 4.3 21:35:35 10° NNW 21:40:06 49° NNE 21:40:06 49° NNE
Cosmos 1697 Rocket 3.3 21:41:19 10° NNW 21:45:47 52° N 21:45:47 52° N
Resurs 01 Rocket 4.3 21:46:03 11° WSW 21:47:10 12° W 21:48:56 10° WNW
COSMOS 2455 4.4 21:42:54 10° NW 21:47:42 25° WSW 21:48:21 25° WSW
Cosmos 841 Rocket 4.3 21:43:05 10° NNW 21:46:53 48° N 21:46:53 48° N
Mayak 1.6 21:47:36 10° NNE 21:47:46 11° NNE 21:47:46 11° NNE
ATLAS CENTAUR R/B 4.0 21:51:57 10° NNW 21:52:56 16° NNW 21:52:56 16° NNW
SL-16 R/B 4.2 22:00:45 10° N 22:04:14 19° NE 22:04:14 19° NE
ERS-1 Rocket 4.4 22:07:20 33° WNW 22:07:20 33° WNW 22:10:46 10° NNW
Cosmos 2322 Rocket 4.2 22:09:16 10° N 22:12:34 18° NE 22:12:34 18° NE
Cosmos 1980 Rocket 3.3 22:10:39 10° NNW 22:14:19 40° N 22:14:19 40° N
Terra 3.7 22:21:20 27° NW 22:21:20 27° NW 22:23:45 10° NNW
Cosmos 2082 Rocket 3.8 22:45:47 29° NNE 22:45:47 29° NNE 22:48:31 10° NNE
Cosmos 1833 Rocket 4.2 22:55:21 32° NNW 22:55:21 32° NNW 22:59:10 10° N
Cosmos 2344 4.3 22:47:19 10° NW 22:57:09 86° NE 22:58:33 74° SE
CZ-4C R/B 3.8 23:22:32 10° NW 23:27:11 40° WNW 23:27:11 40° WNW
SL-16 R/B 4.1 23:43:52 10° NNW 23:46:05 25° NNW 23:46:05 25° NNW
Cosmos 2360 Rocket 4.0 23:47:35 10° NNW 23:50:15 27° N 23:50:15 27° N
